Rolla, MO

5:07 AM CDT on April 25, 2017 (GMT -0500)
Rolla National

Weather History for KVIH - December, 2013

Change the Weather History Date:

Friday, December 20, 2013

  Actual Average Record
Temperature  
Mean Temperature 48 °F 32 °F  
Max Temperature 65 °F 42 °F 67 °F (1949)
Min Temperature 30 °F 23 °F -11 °F (1901)
Degree Days  
Heating Degree Days 17 33  
Month to date heating degree days 639 602  
Since 1 July heating degree days 1689 1549  
Cooling Degree Days 0 0  
Month to date cooling degree days 0 0  
Year to date cooling degree days 1125 1246  
Moisture  
Dew Point 41 °F    
Average Humidity 89    
Maximum Humidity 100    
Minimum Humidity 78    
Precipitation  
Precipitation 0.02 in 0.07 in 1.29 in (1991)
Month to date precipitation 1.05 1.81  
Year to date precipitation 40.80 42.78  
Sea Level Pressure  
Sea Level Pressure 29.80 in    
Wind  
Wind Speed 11 mph (West)    
Max Wind Speed 21 mph    
Max Gust Speed 26 mph    
Visibility 6 miles    
Events Rain    
T = Trace of Precipitation, MM = Missing Value Source: NWS Daily Summary

Daily Weather History Graph

Daily Weather History Graph

Search for Another Location

Airport or City:

Trip Planner

Search our weather history database for the weather conditions in past years. The results will help you decide how hot, cold, wet, or windy it might be!

Date:

Astronomy

Dec. 20, 2013 Rise Set
Actual Time 7:19 AM CST 4:50 PM CST
Civil Twilight 6:49 AM CST 5:19 PM CST
Nautical Twilight 6:16 AM CST 5:53 PM CST
Astronomical Twilight 5:44 AM CST 6:25 PM CST
Moon 8:08 PM CST (12/20) 9:15 AM CST (12/20)
Length of Visible Light 10h 30m
Length of Day
9h 30m
Waning Gibbous, 90% of the Moon is Illuminated
Dec 20
Waning Gibbous
Dec 25
Last Quarter
Jan 1
New
Jan 7
First Quarter
Jan 15
Full

Hourly Weather History & Observations

Time (CST) Temp. Windchill Dew Point Humidity Pressure Visibility Wind Dir Wind Speed Gust Speed Precip Events Conditions
12:53 AM 55.9 °F - 51.1 °F 84% 29.73 in 10.0 mi South 13.8 mph - N/A   Mostly Cloudy
1:53 AM 55.9 °F - 51.1 °F 84% 29.73 in 10.0 mi South 13.8 mph - N/A   Overcast
2:53 AM 55.9 °F - 51.1 °F 84% 29.73 in 10.0 mi South 15.0 mph - N/A   Unknown
3:40 AM 57.0 °F - 52.0 °F 83% 29.74 in 10.0 mi South 13.8 mph - 0.00 in   Overcast
3:53 AM 55.9 °F - 52.0 °F 87% 29.73 in 10.0 mi South 13.8 mph 24.2 mph 0.00 in   Overcast
4:05 AM 57.0 °F - 52.0 °F 83% 29.73 in 10.0 mi South 15.0 mph - N/A   Overcast
4:53 AM 55.9 °F - 52.0 °F 87% 29.72 in 10.0 mi South 13.8 mph - N/A   Scattered Clouds
5:53 AM 55.9 °F - 53.1 °F 90% 29.72 in 10.0 mi South 13.8 mph - N/A   Scattered Clouds
6:53 AM 55.9 °F - 53.1 °F 90% 29.72 in 10.0 mi South 10.4 mph - N/A   Partly Cloudy
7:53 AM 57.0 °F - 54.0 °F 89% 29.73 in 10.0 mi South 12.7 mph - N/A   Mostly Cloudy
8:53 AM 57.9 °F - 55.0 °F 90% 29.74 in 10.0 mi South 13.8 mph - N/A   Overcast
9:53 AM 60.1 °F - 55.9 °F 86% 29.75 in 10.0 mi South 10.4 mph - N/A   Overcast
10:16 AM 61.0 °F - 55.9 °F 83% 29.76 in 10.0 mi SSW 11.5 mph - N/A   Overcast
10:53 AM 63.0 °F - 55.9 °F 78% 29.74 in 10.0 mi SSW 12.7 mph - N/A   Overcast
11:29 AM 54.0 °F - 50.0 °F 86% 29.77 in 10.0 mi WNW 16.1 mph - N/A   Overcast
11:44 AM 51.1 °F - 46.0 °F 83% 29.76 in 9.0 mi WNW 12.7 mph - N/A   Mostly Cloudy
11:53 AM 51.1 °F - 46.0 °F 83% 29.76 in 9.0 mi WNW 16.1 mph - N/A   Mostly Cloudy
12:14 PM 48.9 °F - 43.0 °F 80% 29.77 in 7.0 mi WNW 17.3 mph - N/A   Mostly Cloudy
12:53 PM 44.1 °F 36.8 °F 39.0 °F 82% 29.79 in 5.0 mi WNW 16.1 mph - N/A   Haze
1:11 PM 43.0 °F 36.4 °F 39.0 °F 86% 29.79 in 5.0 mi WNW 12.7 mph - N/A   Overcast
1:24 PM 41.0 °F 33.5 °F 37.9 °F 89% 29.79 in 4.0 mi WNW 13.8 mph - N/A   Overcast
1:53 PM 39.9 °F 32.5 °F 37.0 °F 89% 29.81 in 4.0 mi WNW 12.7 mph - N/A   Overcast
2:53 PM 37.0 °F 29.8 °F 35.1 °F 93% 29.80 in 5.0 mi West 10.4 mph - N/A   Overcast
3:53 PM 36.0 °F 28.0 °F 34.0 °F 93% 29.83 in 2.5 mi WNW 11.5 mph - 0.00 in Rain Light Rain
4:07 PM 35.1 °F 27.9 °F 34.0 °F 96% 29.83 in 2.5 mi WNW 9.2 mph - 0.00 in   Overcast
4:22 PM 35.1 °F 27.4 °F 34.0 °F 96% 29.83 in 1.5 mi NW 10.4 mph - 0.00 in   Overcast
4:53 PM 34.0 °F 26.6 °F 34.0 °F 100% 29.84 in 1.8 mi WNW 9.2 mph - 0.00 in   Overcast
5:26 PM 34.0 °F 28.0 °F 34.0 °F 100% 29.84 in 2.0 mi WNW 6.9 mph - N/A   Overcast
5:53 PM 34.0 °F 28.0 °F 33.1 °F 96% 29.86 in 1.2 mi NW 6.9 mph - N/A   Overcast
6:34 PM 33.1 °F 24.9 °F 32.0 °F 96% 29.85 in 3.0 mi WNW 10.4 mph - N/A   Overcast
6:53 PM 33.1 °F 26.1 °F 33.1 °F 100% 29.87 in 4.0 mi WNW 8.1 mph - N/A   Overcast
7:19 PM 33.1 °F 27.7 °F 32.0 °F 96% 29.86 in 4.0 mi NW 5.8 mph - N/A   Overcast
7:53 PM 32.0 °F 24.8 °F 30.9 °F 96% 29.86 in 3.0 mi NW 8.1 mph - N/A   Overcast
8:13 PM 32.0 °F 25.6 °F 30.9 °F 96% 29.85 in 2.5 mi WNW 6.9 mph - N/A   Overcast
8:37 PM 32.0 °F 26.4 °F 30.9 °F 96% 29.84 in 1.8 mi NW 5.8 mph - N/A   Overcast
8:53 PM 32.0 °F 25.6 °F 30.9 °F 96% 29.86 in 2.0 mi NW 6.9 mph - N/A   Overcast
9:29 PM 30.9 °F 25.2 °F 30.9 °F 100% 29.85 in 2.0 mi West 5.8 mph - N/A   Overcast
9:48 PM 30.2 °F 23.4 °F 30.2 °F 100% 29.84 in 2.0 mi NW 6.9 mph - N/A   Overcast
9:53 PM 30.9 °F 25.2 °F 30.9 °F 100% 29.85 in 2.0 mi NW 5.8 mph - N/A   Overcast
10:03 PM 30.9 °F 23.5 °F 30.0 °F 96% 29.84 in 1.8 mi NNW 8.1 mph - N/A   Overcast
10:53 PM 30.0 °F 23.2 °F 30.0 °F 100% 29.84 in 1.8 mi NNW 6.9 mph - 0.01 in   Overcast
11:03 PM 30.0 °F 25.2 °F 30.0 °F 100% 29.84 in 2.5 mi NW 4.6 mph - 0.00 in   Overcast
11:10 PM 30.9 °F 25.2 °F 30.0 °F 96% 29.84 in 4.0 mi NNW 5.8 mph - 0.00 in   Overcast
11:53 PM 30.9 °F 24.3 °F 30.0 °F 96% 29.83 in 5.0 mi North 6.9 mph - 0.01 in   Overcast